Location: ??????????
(54.7560°N, 39.1389°E)
Time: 14:35:22
(UTC+00:00)

USA 229 DEB - Pass Details

Date: 19 May 2025
Orbit: 872 x 1339 km, 63.4° (Epoch: 17 June)

Event Time Altitude Azimuth Distance (km) Brightness Sun altitude
Exits shadow 23:20:43 - 255° (WSW) 3,486 6.0 -10.9°
Reaches altitude 10° 23:22:52 10° 260° (W) 2,725 5.5 -10.8°
Maximum altitude 23:29:09 54° 337° (NNW) 1,273 4.4 -10.3°
Drops below altitude 10° 23:36:13 10° 54° (NE) 3,057 7.3 -9.8°
Sets 23:39:11 0° 59° (ENE) 4,092 8.0 -9.6°
